Home   Weather   Inukjuak   Past weeks
Flag for Canada

Past Weather in Inukjuak, Quebec, Canada — Yesterday and Last 2 Weeks

Now
48 °F

Clear.


Feels Like: 42 °F
Forecast: 51 / 44 °F
Wind: 16 mph from North

Location: Inukjuak Airport

Current Time: Jul 17, 2019 at 3:29:09 am

Latest Report: Jul 17, 2019 at 3:00 am


Visibility: 9 mi

Pressure: 29.65 "Hg

Humidity: 94%

Dew Point: 46 °F

Location of InukjuakLocation

Past Weather in Inukjuak — Graph

°F

Inukjuak Temperature Yesterday

Maximum temperature yesterday: 63 °F (at 12:00 pm)
Minimum temperature yesterday: 48 °F (at 12:00 am)
Average temperature yesterday: 56 °F

High & Low Weather Summary for the Past Weeks

 TemperatureHumidityPressure
High70 °F (Jul 13, 2:00 pm)100% (Jul 2, 9:01 pm)30.08 "Hg (Jul 2, 9:01 pm)
Low41 °F (Jul 7, 4:00 am)35% (Jul 8, 5:00 pm)29.53 "Hg (Jul 16, 4:00 pm)
Average52 °F84%29.80 "Hg
* Reported Jul 2 2:00 am — Jul 17 2:00 am, Inukjuak. Weather by CustomWeather, © 2019

Note: Actual official high and low records may vary slightly from our data, if they occured in-between our weather recording intervals... More about our weather records

Advertising

Inukjuak Weather History for the Previous 24 Hours

Scroll right to see more
 ConditionsComfort  
Time TempWeatherWind HumidityBarometerVisibility
2:00 am
Wed, Jul 17
50 °FPassing clouds.18 mph82%29.64 "Hg9 mi
1:00 am50 °FPassing clouds.18 mph88%29.62 "Hg9 mi
12:00 am52 °FOvercast.21 mph82%29.62 "Hg9 mi
11:00 pm
Tue, Jul 16
54 °FPassing clouds.21 mph77%29.59 "Hg9 mi
10:01 pm55 °FOvercast.22 mph67%29.57 "Hg9 mi
9:00 pm57 °FMostly cloudy.20 mph72%29.57 "Hg9 mi
8:00 pm57 °FOvercast.12 mph72%29.55 "Hg9 mi
7:11 pm57 °FCloudy.14 mph67%29.55 "Hg9 mi
7:00 pm57 °FMostly cloudy.14 mph67%29.54 "Hg9 mi
6:00 pm57 °FPartly sunny.20 mph72%29.54 "Hg9 mi
5:00 pm57 °FCloudy.20 mph72%29.53 "Hg9 mi
4:00 pm59 °FOvercast.17 mph77%29.53 "Hg9 mi
3:00 pm63 °FOvercast.20 mph59%29.53 "Hg9 mi
2:00 pm63 °FPartly sunny.21 mph59%29.53 "Hg9 mi
1:00 pm63 °FPartly sunny.21 mph59%29.54 "Hg9 mi
12:00 pm63 °FOvercast.21 mph59%29.57 "Hg9 mi
11:00 am61 °FScattered clouds.20 mph63%29.59 "Hg9 mi
10:00 am59 °FSunny.18 mph72%29.62 "Hg9 mi
9:00 am59 °FSunny.17 mph72%29.63 "Hg9 mi
8:00 am57 °FSunny.22 mph77%29.65 "Hg9 mi
7:00 am55 °FSunny.18 mph82%29.67 "Hg9 mi
6:00 am52 °FPartly sunny.15 mph94%29.71 "Hg9 mi
5:00 am52 °FPartly sunny.16 mph88%29.72 "Hg9 mi
4:00 am50 °FClear.10 mph94%29.75 "Hg9 mi
3:00 am50 °FClear.12 mph94%29.77 "Hg9 mi
Weather by CustomWeather, © 2019

See weather overview